Wind_Speed
54 54 53 52 51 50 51 49 46 46 46 49 48 43 40 37 35 37 40 40 40 41 43 43 41 36 32 30 29 29 27 26 26 26 28 27 24 25 27 27 24 23 24 30 37 36 32 30 28 24 22 22 25 29 33 33 31 30 30 29 28 29 28 26 25 25 25 26 26 26 26 25 23 22 22 21 20 19 19 19 20 21 21 21 21
54 54 52 51 50 49 50 49 47 47 50 51 46 40 38 38 37 39 39 37 38 40 42 42 40 35 30 29 30 29 28 27 27 28 28 28 26 24 27 29 28 26 25 28 36 40 38 34 32 30 26 24 24 26 30 32 32 30 28 27 26 27 28 28 27 27 28 28 26 25 27 28 27 26 24 23 20 20 20 20 20 21 22 22 22
56 56 56 54 52 50 50 50 49 50 49 47 44 41 39 38 37 36 35 34 35 37 39 41 38 32 29 28 29 29 29 29 29 29 30 30 27 23 24 30 30 29 28 27 32 39 41 40 38 36 32 29 28 28 28 29 30 31 29 27 26 27 28 29 29 30 31 31 28 25 25 27 29 30 29 26 22 21 22 22 21 21 21 22 23
61 59 56 55 54 51 50 51 52 52 49 46 45 43 38 34 32 34 35 34 35 38 39 39 34 30 28 26 28 29 29 30 29 29 32 32 27 23 23 29 31 31 31 30 30 33 36 41 42 42 38 35 33 33 33 32 31 31 31 30 29 29 30 31 32 32 33 33 32 30 28 26 26 28 31 29 26 24 25 24 23 22 21 21 22
63 60 57 56 57 53 49 50 50 49 50 48 43 40 38 33 30 34 39 39 39 41 39 36 30 26 24 24 26 27 28 30 29 29 33 31 25 21 21 27 31 32 32 33 33 30 28 32 37 40 41 40 37 35 36 38 37 36 35 34 34 34 34 34 34 34 35 33 32 31 31 30 28 26 27 29 29 27 26 25 24 22 21 21 21
59 57 56 56 54 51 47 45 44 44 48 51 44 39 39 37 33 35 38 37 37 37 35 31 27 23 21 22 24 26 27 28 27 30 34 31 24 21 21 25 31 34 33 33 34 31 26 27 30 33 35 39 40 38 37 39 40 41 41 40 40 40 39 37 36 35 34 32 31 31 32 32 30 28 26 27 28 27 26 26 25 22 21 20 21
58 53 54 56 51 46 42 40 45 48 49 53 49 41 40 38 36 37 39 37 35 33 29 26 24 22 20 20 23 26 27 26 26 28 32 32 27 22 23 28 32 36 34 33 35 32 28 28 30 32 33 35 39 43 43 40 39 41 42 42 42 41 40 39 37 34 32 31 31 30 32 33 31 29 27 26 26 25 25 27 26 24 22 21 21
57 51 50 53 52 47 42 38 43 49 48 49 48 43 42 41 39 41 42 37 32 31 27 23 22 21 20 20 21 25 27 27 25 26 29 32 31 27 28 32 35 36 32 31 34 34 29 29 31 34 36 38 37 41 46 45 42 41 41 41 40 39 39 39 38 37 34 33 31 28 29 32 31 29 27 26 25 24 25 27 28 27 26 24 24
56 52 44 41 44 44 42 41 42 45 46 47 48 47 44 44 44 42 40 34 29 29 25 23 22 20 21 22 21 23 27 28 27 25 27 31 33 32 32 33 33 31 27 28 31 32 32 32 33 36 39 41 40 40 45 47 44 43 43 42 40 39 38 38 38 37 36 35 34 30 28 30 31 30 29 27 26 25 26 26 27 28 28 27 26
56 55 50 46 47 43 40 42 42 43 47 49 49 51 46 44 47 44 39 34 29 27 24 23 23 21 22 25 24 23 25 30 31 28 27 29 31 33 33 30 29 29 29 29 30 32 34 35 35 35 38 41 43 43 45 46 41 39 42 41 40 39 38 38 38 37 36 36 36 36 32 30 31 31 31 30 30 29 29 28 28 29 30 29 29
53 53 53 53 53 49 46 47 47 49 53 53 52 53 49 45 45 42 39 35 31 28 25 24 24 23 25 27 26 25 25 29 33 33 30 28 29 32 35 33 33 35 34 33 32 32 35 37 37 36 37 40 44 44 46 48 42 36 37 37 36 36 36 38 39 39 38 37 37 38 37 35 33 33 34 34 33 32 31 31 30 30 30 30 30
49 50 50 50 49 49 50 51 52 52 52 52 51 51 49 46 42 37 36 35 33 29 27 27 27 26 28 28 28 28 27 28 32 34 33 31 30 31 35 36 37 37 36 35 32 31 34 37 38 38 39 39 40 41 43 48 47 41 36 35 36 36 37 40 42 43 42 41 40 39 38 37 35 34 34 34 34 32 31 30 29 28 29 29 30
45 46 46 47 46 47 48 49 50 51 49 48 47 47 47 46 43 38 35 35 35 31 28 29 28 28 30 29 30 31 30 30 33 35 34 34 34 33 34 36 38 39 38 36 33 32 33 35 38 40 39 36 36 37 39 43 47 48 43 39 40 42 43 44 44 43 43 42 42 41 40 38 36 34 33 32 33 32 31 30 28 27 27 28 29
42 43 43 44 44 44 45 46 48 50 51 49 46 47 48 47 46 43 39 37 35 32 31 31 30 31 33 32 31 33 34 34 35 36 36 36 37 37 36 36 39 40 40 38 35 34 34 35 38 38 35 33 32 33 35 38 42 47 49 47 47 47 45 42 40 38 37 37 38 41 42 41 39 38 37 35 35 34 34 34 32 30 29 29 29
38 39 40 41 42 42 42 43 45 48 51 51 49 50 50 47 47 46 43 39 36 36 35 34 34 34 35 34 31 32 38 40 36 35 37 39 39 39 38 37 38 39 40 40 39 37 36 37 37 33 28 27 27 27 29 31 33 38 42 44 43 41 39 37 37 37 36 35 35 37 40 42 42 42 41 40 39 38 38 37 36 34 32 31 30
36 36 37 38 38 39 40 40 42 45 46 49 51 53 52 48 45 45 43 41 39 39 39 38 37 37 36 35 32 31 35 41 41 38 38 39 40 40 39 38 38 39 40 40 39 38 38 37 34 28 24 23 22 22 23 24 25 26 27 28 28 27 28 30 33 36 37 38 37 35 36 38 41 42 43 43 43 43 42 42 41 40 36 34 31
34 34 35 35 36 37 38 39 40 42 44 46 49 53 55 51 46 44 44 43 41 41 41 41 41 41 39 36 35 33 33 38 43 43 42 41 41 41 40 39 39 40 39 38 38 38 39 37 33 29 27 25 24 23 22 20 20 20 19 19 20 21 21 23 25 29 34 38 39 38 36 35 36 37 39 41 42 43 43 43 43 43 41 38 35
32 33 33 34 35 35 37 37 39 40 42 45 47 51 55 55 53 49 46 44 43 43 42 43 43 43 40 37 37 37 34 36 40 43 46 46 44 42 41 40 40 40 39 37 36 37 39 38 35 33 31 29 29 27 24 20 18 18 19 20 22 22 21 21 22 24 26 31 36 39 39 36 33 33 33 34 35 37 38 39 40 41 41 40 38
31 31 32 33 33 34 35 36 37 39 41 43 46 48 51 54 56 56 52 46 44 46 45 44 45 43 40 37 38 39 37 35 37 40 43 46 47 45 43 42 42 41 39 38 37 36 37 38 38 38 36 34 34 32 29 27 24 22 23 24 24 24 23 25 26 26 25 25 28 33 38 38 35 33 32 32 32 32 33 34 36 37 38 39 39
30 30 31 32 32 33 34 34 35 36 38 41 43 45 47 50 53 56 57 53 49 49 48 47 46 45 42 40 40 41 38 36 37 39 39 42 46 47 46 44 43 43 42 40 39 38 38 38 38 40 40 39 38 37 36 35 34 34 31 29 27 26 26 28 29 29 28 26 26 29 33 38 40 39 37 36 34 33 32 33 34 35 36 37 38
29 30 31 32 32 32 32 33 34 35 36 38 40 43 45 47 49 52 56 56 54 53 52 49 47 47 44 41 42 42 40 39 40 40 40 40 43 47 48 47 46 45 44 43 42 41 42 41 40 41 42 42 42 41 40 40 41 41 37 34 33 32 30 30 31 31 31 30 30 29 30 32 37 40 42 42 41 39 37 35 35 35 36 36 37
29 30 30 31 32 32 32 32 32 34 36 38 39 41 43 44 46 48 51 54 55 57 56 53 50 49 46 41 42 42 40 41 42 43 42 42 43 46 49 50 49 49 48 46 44 44 46 45 44 43 43 44 45 44 43 42 43 42 39 35 35 36 36 34 34 34 34 33 30 28 30 30 32 35 38 41 43 43 43 42 40 39 39 39 38
30 30 30 31 32 32 33 32 32 33 35 37 39 40 41 42 43 45 47 50 53 56 58 57 54 52 49 44 42 42 41 41 42 43 43 42 43 45 48 50 51 51 51 49 47 46 48 49 48 47 45 46 46 46 45 44 44 43 41 39 37 38 39 38 38 38 36 35 31 28 30 32 34 35 33 33 36 38 41 43 44 45 45 45 45
32 32 32 32 32 32 33 34 34 34 34 36 37 38 39 40 41 43 44 47 50 53 55 57 58 56 54 50 47 46 45 43 42 43 44 43 43 44 46 49 51 51 52 51 50 48 48 51 51 50 48 48 48 48 47 45 45 45 44 42 40 40 41 41 43 42 40 38 35 32 33 35 37 36 32 30 31 32 33 36 38 40 41 42 43
32 33 33 33 33 32 33 34 35 36 36 36 37 38 38 38 40 41 43 44 47 50 52 54 56 58 59 57 53 50 50 48 45 44 46 46 45 45 46 47 49 50 51 51 51 50 50 51 52 51 50 49 49 49 48 48 47 47 47 46 44 43 43 44 45 45 44 44 41 39 39 39 39 35 31 31 31 30 30 30 31 32 32 33 34
33 33 34 34 34 34 34 34 35 36 37 38 39 39 40 39 40 41 42 44 45 47 50 52 53 56 59 60 59 55 53 53 51 47 47 48 48 48 49 49 48 49 51 52 51 51 51 52 52 52 52 51 51 50 49 48 48 49 51 50 48 48 47 46 45 45 47 48 47 45 43 42 39 36 33 33 32 32 31 30 30 30 30 30 31
35 35 35 35 35 35 36 36 36 37 38 39 40 41 41 41 41 41 42 44 45 46 48 50 52 54 57 59 60 60 57 56 56 53 50 50 50 51 51 51 51 50 51 52 52 52 52 53 53 53 53 52 52 51 49 48 47 48 50 49 50 52 51 48 46 45 47 49 49 48 46 45 43 40 37 36 35 34 33 32 32 32 31 31 32
38 38 38 38 38 38 38 38 38 38 38 39 40 41 42 43 43 43 44 44 45 46 47 48 50 52 55 58 59 61 61 59 59 58 56 53 52 52 53 53 54 54 54 54 54 54 54 55 54 54 53 52 51 50 50 49 47 46 47 49 50 51 51 51 50 47 47 49 49 50 50 49 47 44 42 41 39 38 37 37 36 35 35 35 35
42 42 42 41 41 41 41 41 41 41 41 40 41 41 42 43 44 45 45 45 46 47 48 49 49 51 53 56 58 60 61 62 61 61 61 59 56 54 55 55 55 56 57 57 56 56 58 57 56 56 56 54 53 51 50 49 48 47 48 50 52 53 52 52 53 52 51 51 51 51 52 52 51 48 47 46 44 42 41 41 40 39 39 38 38
46 46 45 45 45 44 44 43 43 43 43 43 43 43 43 43 44 45 45 46 47 47 48 49 50 51 52 54 57 60 61 62 63 63 64 65 63 60 57 57 57 57 58 59 59 60 60 60 59 59 59 58 56 55 54 53 52 51 50 51 52 54 54 53 53 53 54 54 54 53 54 54 52 51 50 49 48 46 45 44 43 42 41 40 40
49 49 48 48 48 47 47 46 46 45 45 45 45 45 45 45 45 45 46 46 47 48 49 50 50 51 52 53 55 58 60 62 64 65 65 67 68 67 64 61 60 60 60 60 61 61 62 63 62 62 62 62 61 61 60 59 59 58 57 56 55 55 56 57 56 55 55 55 55 55 54 54 53 53 53 52 51 50 49 47 46 44 43 43 43
51 51 50 50 50 49 49 49 49 48 47 48 47 47 47 47 47 47 47 48 48 49 50 50 51 52 52 53 54 55 58 61 63 66 67 67 69 70 69 67 64 62 62 62 63 63 64 64 64 65 64 64 65 65 65 65 65 65 64 63 62 61 62 62 62 60 58 57 56 56 56 55 55 55 54 54 53 53 52 50 49 48 47 47 47
52 52 51 51 51 51 51 51 51 51 51 50 50 50 50 50 50 50 50 50 50 50 50 51 52 53 53 54 55 56 57 59 61 64 67 69 70 70 71 70 69 66 64 63 64 66 67 66 65 65 66 66 67 67 68 69 69 69 69 69 68 67 67 66 66 65 63 61 61 60 60 59 58 58 57 56 56 55 55 54 53 52 52 51 51
51 52 51 52 52 53 53 52 52 53 54 54 54 54 53 53 53 53 53 53 52 52 52 52 52 54 55 55 56 57 58 59 60 62 64 67 70 72 73 72 72 71 69 67 65 65 67 69 69 68 67 67 68 69 68 69 69 69 70 70 70 71 71 70 70 69 67 66 66 65 65 63 61 60 59 59 59 59 58 57 56 56 55 54 53
51 52 51 52 52 52 53 54 54 54 55 55 56 56 57 57 57 56 56 55 55 55 54 54 55 55 56 57 58 58 59 60 61 62 63 65 67 70 73 74 75 74 74 73 70 67 66 68 71 72 71 69 69 70 70 70 70 70 69 69 69 69 70 70 70 70 70 70 69 68 66 65 63 62 62 62 62 62 61 60 59 57 56 55 54
54 53 53 54 53 52 53 54 54 55 56 56 57 57 58 60 60 60 59 58 58 59 58 58 58 58 58 58 59 60 61 62 63 63 64 65 66 68 70 72 74 76 76 76 75 73 71 69 69 72 74 74 72 71 71 72 72 72 72 71 71 70 69 69 69 69 70 71 71 70 68 66 64 63 63 63 63 63 62 61 60 59 58 58 57
56 54 54 54 55 55 54 55 55 55 55 55 56 58 59 60 61 61 62 62 62 62 62 61 61 61 61 60 61 62 62 63 64 65 65 66 67 68 69 70 72 73 75 77 77 77 76 75 72 71 73 76 77 76 74 73 73 73 72 72 73 73 73 73 73 73 73 73 73 72 71 69 67 66 65 64 64 64 64 63 63 62 62 62 61
53 53 48 44 45 49 52 54 56 56 56 57 58 60 61 61 62 62 62 64 65 65 65 65 64 64 64 64 64 64 64 65 66 66 67 67 67 68 69 71 72 73 74 75 77 77 78 78 77 76 74 75 77 79 80 78 77 76 75 73 72 72 72 72 73 73 74 74 75 74 74 73 72 71 70 68 68 67 67 66 66 66 66 66 65
46 48 47 43 43 45 46 48 51 52 54 57 59 62 64 64 64 63 63 63 65 66 67 67 67 67 67 67 67 67 67 68 68 68 68 69 69 69 70 71 72 73 75 75 76 77 78 79 79 79 79 77 77 78 80 81 81 81 80 80 79 77 75 74 74 74 74 74 74 74 73 73 73 73 72 70 69 68 67 66 66 66 67 67 67
42 41 44 46 49 51 49 46 44 41 40 45 53 60 65 67 66 66 66 65 66 66 67 68 69 70 70 70 70 70 70 70 70 70 70 71 71 71 71 71 72 73 74 76 77 77 78 79 80 81 81 81 81 80 79 80 81 82 82 82 83 84 84 83 82 81 80 79 78 78 77 76 75 75 75 74 73 72 71 70 70 70 70 70 70
46 40 39 43 48 53 54 50 45 38 34 38 48 55 61 65 66 66 67 68 68 67 67 68 69 70 72 73 73 72 73 73 73 72 73 73 73 73 73 73 73 74 74 75 77 78 78 79 80 82 83 84 85 85 83 82 81 81 82 82 82 83 85 86 87 87 86 85 84 83 83 83 82 82 82 82 82 81 81 81 81 80 79 78 78
53 48 44 44 46 50 54 54 49 45 43 45 49 53 57 61 64 66 66 68 69 69 69 70 70 71 72 74 74 75 75 76 76 75 75 75 75 76 76 76 75 76 76 76 77 78 79 80 81 82 83 84 86 87 87 87 86 84 83 83 83 83 84 84 86 88 89 89 88 87 87 87 87 87 87 87 87 87 86 85 85 84 83 82 82
61 59 55 53 52 50 50 52 53 53 53 55 57 59 60 61 63 65 66 67 69 70 72 73 74 74 74 75 75 76 77 77 78 78 78 78 78 78 78 78 78 78 78 78 78 79 79 80 81 82 83 84 86 87 88 89 90 89 88 87 86 86 86 85 85 87 88 89 88 88 89 90 90 90 90 90 90 90 89 89 88 88 87 86 86
66 65 62 60 61 60 57 55 57 59 61 62 63 64 64 66 67 67 65 65 67 69 70 73 75 76 76 76 76 77 78 79 79 79 79 80 81 81 81 81 81 81 80 80 80 81 81 81 81 82 83 84 85 87 87 88 88 89 90 91 90 90 89 89 88 89 90 90 88 87 87 89 89 89 89 89 90 90 90 90 91 90 90 90 89
67 67 66 65 65 67 67 65 63 64 66 67 68 68 69 72 73 71 68 65 65 68 70 72 74 75 76 78 79 79 79 80 81 81 81 81 82 83 83 84 84 83 83 83 83 83 83 83 83 83 84 84 85 86 87 88 88 88 89 90 91 91 91 91 91 92 93 93 92 90 89 90 90 89 88 88 88 88 88 89 89 89 89 89 89
69 69 69 69 68 69 71 71 69 69 70 71 72 74 75 77 78 78 75 71 70 72 74 75 76 76 76 78 80 81 82 82 83 83 84 84 85 85 85 85 85 86 86 86 87 87 87 86 86 86 86 86 86 87 88 88 88 88 89 89 89 90 90 91 92 93 94 95 95 94 93 94 95 94 92 92 92 91 90 90 89 89 88 88 89
71 71 71 71 71 71 72 73 73 72 71 73 76 80 82 84 84 83 81 79 78 78 78 78 79 79 79 79 79 81 81 82 83 84 85 86 87 88 88 87 87 87 88 89 90 90 90 90 89 89 90 90 90 90 90 91 90 90 90 89 90 90 90 91 91 92 93 95 96 96 94 95 98 98 96 97 97 96 95 94 93 93 92 91 90
72 72 72 72 72 73 73 74 73 72 73 75 79 82 85 86 85 84 82 82 82 81 80 80 80 81 82 82 82 82 82 82 82 83 84 85 87 88 89 90 90 90 90 91 92 92 92 92 92 93 93 93 94 94 94 94 94 94 93 92 92 92 92 91 92 92 93 94 95 95 94 94 97 97 97 98 98 98 97 97 96 95 95 94 93
73 73 73 73 73 73 73 73 72 72 74 77 79 81 83 84 84 84 83 82 83 83 82 82 81 81 82 83 84 84 84 83 83 83 84 85 86 87 88 89 90 91 92 93 94 94 94 94 95 95 95 96 97 97 98 98 98 98 97 96 96 96 95 93 93 94 94 95 96 96 95 94 96 97 97 97 98 98 98 98 98 97 96 96 95
73 73 74 74 74 72 72 72 73 74 76 78 79 80 80 81 83 83 83 82 83 83 83 82 82 83 83 83 84 85 85 84 84 84 85 86 86 87 87 88 89 90 92 93 94 95 96 96 97 97 97 98 98 99 100 100 100 101 100 99 100 100 98 97 97 97 97 97 98 99 97 96 97 98 97 97 98 98 98 99 99 99 98 97 96
73 74 74 74 73 72 72 74 75 77 77 78 78 79 80 81 83 83 83 83 82 82 82 82 82 83 83 84 84 84 85 84 84 85 86 87 87 88 88 88 88 89 90 91 92 93 94 96 97 99 99 100 101 101 102 102 102 103 102 102 102 102 101 101 100 100 100 100 102 103 101 100 100 100 100 100 100 100 100 101 100 100 100 98 97
Wind_Direction
266 267 270 273 273 270 270 273 271 265 270 278 279 280 282 284 281 277 277 279 282 285 285 282 281 281 275 266 262 259 254 246 240 234 226 222 223 235 249 257 257 250 243 229 221 222 225 226 229 231 237 241 242 242 241 244 248 251 255 256 254 252 252 251 252 253 254 260 265 264 262 261 264 266 267 268 272 275 277 276 272 269 269 272 275
264 266 269 271 269 268 269 269 265 265 272 276 275 276 278 278 276 276 276 277 283 286 284 280 277 275 269 262 259 256 253 245 238 232 220 214 217 226 241 252 258 259 252 236 226 224 227 231 233 232 232 235 237 240 240 243 244 245 247 249 248 246 247 249 250 248 251 260 266 267 265 262 262 263 263 264 266 270 273 275 272 269 267 267 270
265 266 269 267 264 267 267 263 262 267 272 270 267 270 274 274 270 268 267 273 281 282 279 277 273 268 264 261 258 255 251 243 237 230 216 210 213 217 234 246 253 260 259 249 234 228 230 232 234 235 233 234 237 238 238 240 241 241 241 241 242 243 244 245 247 248 249 256 261 264 267 267 265 263 263 262 263 268 270 270 270 270 270 268 268
265 266 266 263 262 265 263 262 264 268 267 263 261 264 268 268 263 261 263 269 275 276 276 273 267 262 262 260 256 252 248 243 236 228 216 211 212 213 233 244 247 257 261 256 244 234 234 235 236 237 236 238 241 242 241 240 240 241 241 241 241 243 244 244 247 250 251 255 259 262 265 268 269 267 264 261 263 267 266 265 267 270 273 273 271
263 264 265 264 263 263 263 265 265 265 262 257 258 260 261 261 260 264 269 271 273 275 274 268 261 259 263 262 256 249 244 242 236 226 217 213 212 214 230 241 248 257 259 256 247 238 239 241 243 243 241 241 243 247 247 244 242 241 242 244 246 247 249 249 250 253 255 256 259 261 262 264 266 269 266 260 260 263 260 261 265 270 274 276 275
263 264 264 264 264 264 264 265 263 262 260 256 256 255 255 256 257 264 271 272 272 272 267 259 256 256 260 261 256 249 244 242 237 228 219 212 209 215 229 240 251 257 258 253 243 238 244 250 252 253 251 247 243 244 247 248 246 245 245 247 250 252 253 254 254 256 255 254 256 258 259 260 262 267 267 259 256 258 257 259 263 268 272 275 277
263 263 262 261 262 261 259 261 262 261 259 256 252 250 251 253 255 260 268 271 267 262 255 249 251 253 253 255 254 251 246 242 239 233 226 218 209 216 237 246 250 253 254 250 240 236 244 251 254 256 257 256 248 242 243 247 248 249 250 250 252 254 255 256 256 256 252 248 251 255 257 259 260 263 265 258 254 257 257 259 262 264 268 272 276
263 262 262 262 261 256 251 251 254 256 257 253 246 242 245 247 251 258 266 268 259 250 245 243 247 248 248 251 250 249 247 244 240 236 233 227 218 218 233 240 242 245 250 249 242 239 243 249 251 250 251 255 253 245 241 244 249 251 253 254 254 254 256 257 256 255 250 244 246 252 256 258 259 259 259 254 253 258 260 260 262 264 267 271 274
259 257 257 259 257 253 249 246 248 251 252 248 242 237 239 244 250 257 262 260 250 242 241 241 246 248 249 250 247 245 245 244 240 236 234 231 227 223 225 230 234 238 247 253 249 247 247 247 247 248 250 252 254 248 240 241 247 252 254 256 257 257 257 257 257 256 251 244 243 249 255 258 259 257 256 255 255 259 262 263 263 265 268 269 272
256 254 250 249 249 247 245 243 243 243 243 244 241 235 234 241 248 252 255 252 243 239 241 243 246 248 250 249 245 243 243 243 241 239 237 233 231 227 223 224 229 235 246 253 254 254 252 250 250 253 255 253 250 245 238 236 241 251 255 258 259 260 258 257 257 258 257 251 246 248 253 257 259 259 259 259 260 260 262 265 265 266 267 267 269
255 254 251 249 248 245 241 238 237 238 241 243 240 234 233 238 244 248 251 246 236 236 239 239 240 241 245 245 242 240 239 240 239 240 240 236 234 230 223 220 225 236 244 247 250 256 257 253 253 260 263 255 248 243 238 233 233 241 250 255 257 257 256 255 256 258 261 259 254 252 253 256 259 262 263 263 263 263 264 267 268 268 267 267 269
253 252 251 250 248 244 240 239 239 239 239 240 236 232 233 236 239 243 245 239 230 232 232 233 239 238 238 240 239 236 234 234 234 236 239 239 238 235 230 224 224 230 235 237 242 252 258 254 253 262 266 256 247 243 239 235 232 233 240 246 249 249 251 254 257 260 261 261 257 255 254 255 257 260 262 262 264 264 264 265 266 267 266 266 269
251 251 250 249 247 244 241 240 239 236 235 235 232 230 231 231 231 235 240 234 228 228 227 228 236 235 233 235 238 236 232 230 229 231 235 239 240 237 236 234 231 229 229 230 236 247 254 252 252 260 261 252 246 242 240 238 234 233 235 240 245 249 253 257 259 260 260 258 255 252 251 251 252 254 256 257 258 259 259 259 262 265 265 265 267
250 249 248 247 245 243 241 239 237 234 232 232 230 227 228 228 229 233 235 230 225 225 223 220 223 227 229 231 236 238 235 231 228 228 232 235 238 238 236 236 236 234 230 227 232 242 249 251 253 257 254 248 246 244 242 240 237 236 236 240 246 252 256 258 258 259 259 257 254 250 249 248 249 251 253 254 255 255 256 257 259 262 264 264 266
250 248 246 245 244 242 240 238 236 234 233 234 230 224 226 229 230 231 231 227 223 222 219 216 218 225 229 230 235 238 237 236 232 231 232 233 236 236 235 235 236 238 235 230 231 234 240 248 251 250 245 243 242 241 240 239 238 238 238 242 247 251 255 256 255 256 258 259 258 253 251 250 250 251 253 255 256 256 258 259 260 262 263 263 264
248 246 245 244 243 242 240 237 237 236 234 234 230 224 224 227 227 227 228 226 222 220 219 216 219 228 231 233 235 235 237 238 236 236 236 236 236 236 236 235 234 237 238 238 237 232 233 240 241 236 232 230 229 231 234 235 235 236 238 241 245 251 255 256 256 255 255 257 260 259 257 255 254 254 255 256 257 258 259 261 263 264 264 263 263
247 246 244 243 242 241 240 238 236 236 235 234 231 227 225 225 225 223 225 225 221 220 222 219 221 228 233 236 235 234 236 235 234 236 238 239 238 238 237 235 233 234 236 240 241 236 234 234 230 226 226 223 225 230 237 240 238 238 242 247 253 257 260 262 263 260 256 255 257 260 262 262 261 259 258 258 258 259 260 261 263 264 264 263 261
247 246 245 243 242 240 239 238 236 236 235 234 233 231 229 228 228 226 224 224 220 219 223 223 223 225 230 234 234 233 235 233 231 233 237 239 240 240 238 235 233 231 231 234 238 238 237 234 228 226 228 227 228 232 238 244 243 242 246 253 260 262 262 268 272 270 264 259 257 257 259 263 265 264 262 261 259 260 260 260 261 261 262 262 259
246 246 245 244 243 242 240 239 237 236 236 235 234 234 233 232 232 231 228 225 221 220 222 223 223 224 227 232 232 231 233 234 232 231 235 239 240 241 239 235 231 229 228 230 233 235 237 235 229 226 228 231 231 232 236 242 245 244 245 253 261 263 265 270 274 274 271 267 263 258 255 255 258 260 262 263 262 262 262 261 260 259 259 260 259
246 245 245 245 245 244 243 241 238 237 236 236 236 235 235 234 233 233 232 229 225 223 222 222 223 224 228 233 233 232 233 235 235 232 232 236 238 240 240 238 234 230 227 229 231 232 233 235 231 227 228 230 232 232 233 237 241 242 242 248 255 260 265 268 269 270 271 271 271 267 258 252 250 252 254 257 259 260 261 261 262 262 261 260 260
245 245 243 244 245 245 244 243 240 238 236 237 237 236 235 236 235 234 234 233 231 227 225 224 223 224 229 233 234 233 233 236 238 235 233 234 235 236 239 240 239 236 232 230 230 229 228 231 233 232 231 231 232 234 234 236 238 238 239 244 248 252 258 261 261 262 264 265 268 270 268 260 254 252 252 253 254 254 256 258 259 261 262 263 263
244 245 244 243 243 243 243 243 242 240 237 237 238 238 237 237 237 236 236 235 234 231 229 227 226 225 227 229 231 232 232 235 238 238 236 235 234 234 236 238 239 240 239 236 233 229 226 228 233 234 234 233 234 236 237 238 239 239 238 240 246 249 250 252 253 253 254 256 259 266 271 271 266 259 255 255 255 254 255 255 256 258 260 262 263
240 242 244 243 243 242 241 241 242 242 241 240 241 242 241 240 240 238 238 237 236 235 234 232 230 228 226 227 228 228 229 231 235 237 238 238 237 235 234 235 236 237 240 240 237 232 228 228 232 234 235 235 236 237 239 240 242 243 240 239 243 246 246 246 248 247 247 248 250 257 266 269 268 265 261 260 259 258 257 257 257 258 259 262 263
240 240 242 242 242 242 241 240 240 241 241 242 244 244 244 243 242 241 240 239 238 238 238 237 235 233 230 229 229 228 228 228 229 233 237 239 237 236 234 234 234 235 237 239 238 235 232 230 232 234 236 237 238 239 241 242 244 244 244 242 243 245 244 244 245 245 245 246 245 247 254 257 259 262 263 261 260 259 259 259 259 259 260 262 263
245 245 244 244 242 241 241 241 240 240 240 241 243 245 245 244 243 243 243 242 241 241 241 240 239 237 235 234 233 232 231 229 228 228 233 236 237 235 234 235 235 234 234 236 237 236 235 233 234 235 237 239 240 241 243 245 246 246 246 246 245 245 244 243 245 246 247 249 249 247 249 251 255 260 261 259 258 257 257 257 257 257 258 260 262
249 249 248 248 246 245 243 242 241 241 240 240 241 244 246 246 245 244 244 244 244 243 243 243 242 240 238 237 236 236 235 234 232 230 229 231 234 235 235 235 236 235 234 235 236 236 237 237 236 236 238 240 241 242 245 246 248 248 248 249 248 247 247 246 247 248 248 250 253 254 254 255 258 260 259 257 256 255 253 253 254 255 256 259 262
251 251 250 250 249 248 247 246 244 243 242 241 241 242 244 245 246 245 245 245 245 244 244 244 243 242 240 239 238 238 237 236 236 236 232 229 230 233 236 236 235 236 236 236 236 237 238 238 239 240 240 241 242 243 244 246 247 249 251 252 250 248 249 248 248 250 250 251 254 256 256 257 258 260 260 258 256 255 254 252 253 255 257 261 262
254 254 253 252 251 250 249 249 247 246 245 244 243 243 243 244 245 246 246 246 246 245 245 245 244 243 242 241 241 240 239 238 238 238 237 234 230 230 233 236 236 235 236 237 237 237 238 239 240 242 241 241 242 243 243 244 245 247 249 251 249 248 250 249 248 249 249 250 253 255 255 255 256 260 262 261 259 258 257 256 255 256 258 261 263
255 255 255 254 254 253 252 251 250 249 248 247 247 246 245 245 245 246 247 247 246 246 246 246 245 244 242 242 242 242 241 240 240 239 239 240 237 232 230 233 236 237 236 237 237 238 239 240 240 241 241 241 241 241 241 241 242 244 245 247 247 248 250 251 250 250 250 250 252 254 254 254 255 259 262 262 261 260 260 259 258 258 259 261 263
256 256 255 255 255 254 254 253 253 252 251 250 249 249 249 249 248 247 248 248 248 247 246 246 246 245 244 243 242 242 242 242 241 241 240 241 243 240 235 232 233 236 238 238 238 239 240 241 240 240 241 241 240 239 239 240 241 243 244 245 246 247 249 251 251 252 252 253 254 254 254 254 255 257 260 261 262 262 261 261 261 260 261 263 265
259 258 257 256 256 255 255 255 254 254 254 253 252 251 251 251 250 249 249 249 248 248 247 247 247 246 245 245 244 243 243 243 243 243 242 242 244 245 244 240 235 234 236 238 239 240 241 242 242 241 242 242 242 242 241 241 243 246 247 247 248 248 249 251 252 252 253 253 253 254 254 254 255 257 259 260 261 262 262 263 262 262 262 264 266
260 260 259 259 258 257 256 255 255 255 255 255 255 254 252 252 251 250 250 249 249 249 248 248 248 247 246 245 245 244 244 244 243 243 244 244 244 245 247 247 244 240 237 236 237 239 241 242 243 243 243 243 243 244 244 243 244 247 249 250 250 251 252 254 255 255 253 253 253 253 254 255 256 258 259 260 261 262 263 263 263 263 264 265 266
260 260 260 260 260 259 258 257 256 256 255 255 255 255 254 253 252 251 250 250 249 248 248 249 248 248 248 246 244 244 244 244 244 244 244 244 244 245 246 248 249 247 244 240 237 237 238 241 242 243 244 244 244 244 245 245 246 247 248 250 251 253 254 255 257 258 257 257 256 257 258 258 258 259 260 261 261 262 262 263 263 264 266 267 267
260 260 259 259 259 259 259 259 258 257 256 256 255 255 255 254 253 252 251 251 250 250 249 249 248 248 248 248 246 245 244 244 244 244 244 244 244 245 246 247 248 249 248 247 244 240 237 238 240 241 242 244 245 246 246 247 248 248 249 251 252 253 255 256 257 258 259 259 259 260 260 260 259 259 259 260 261 262 263 263 264 265 266 265 265
260 261 261 260 260 260 260 260 259 258 258 257 257 256 255 255 254 253 253 252 251 251 250 249 249 248 247 248 247 247 246 245 244 244 244 245 245 245 246 246 247 249 249 249 249 247 242 238 237 238 240 241 243 245 246 247 248 250 251 252 253 254 255 256 257 257 258 258 258 258 258 258 258 257 257 258 259 261 262 262 263 263 263 263 263
259 261 262 263 263 262 262 261 260 259 259 258 258 258 257 256 256 255 254 253 252 251 251 250 249 249 248 248 248 247 247 246 246 245 245 245 245 245 246 246 247 248 249 250 251 251 249 245 240 237 238 239 240 241 243 244 246 248 250 252 253 254 254 255 255 256 256 257 258 258 258 257 256 256 256 256 257 259 260 261 261 262 262 263 264
258 258 261 263 265 266 265 263 262 261 261 260 260 259 259 258 257 256 254 253 252 251 251 250 250 250 249 249 249 248 248 247 247 247 247 246 246 245 246 246 247 248 248 249 250 251 252 252 249 244 240 239 239 240 241 241 242 244 245 247 248 250 252 253 254 255 256 257 258 259 259 259 258 257 257 258 259 260 261 262 263 264 265 265 267
259 257 256 259 263 266 266 263 262 261 260 260 260 260 259 258 258 257 256 254 253 252 251 251 250 250 250 249 249 249 248 248 248 248 248 248 248 247 247 247 247 248 248 248 249 251 252 252 253 251 248 244 241 241 241 242 242 242 243 244 245 246 247 248 249 251 253 254 256 257 258 258 259 259 259 259 260 260 261 262 262 263 264 265 266
260 255 251 249 247 250 256 258 260 261 261 261 261 259 257 256 256 256 256 255 254 253 252 251 251 250 250 250 250 249 249 249 248 248 248 248 249 249 249 249 248 248 248 249 249 250 251 252 253 253 253 251 248 245 243 243 244 244 244 244 245 246 247 248 248 248 249 250 251 252 252 253 254 254 254 255 255 255 256 257 258 259 260 261 262
257 253 249 247 244 243 247 253 256 259 263 264 262 259 256 254 254 254 254 255 255 254 252 251 251 251 250 250 250 250 250 250 249 249 249 249 249 249 249 249 250 249 249 249 249 249 250 251 252 253 253 254 253 252 249 246 245 245 245 245 245 246 247 249 250 251 251 251 252 252 252 252 252 252 252 253 253 253 254 255 257 258 258 259 259
253 249 248 249 247 244 245 249 250 247 247 252 257 259 259 257 254 253 252 253 253 253 252 251 251 251 251 251 250 250 250 250 250 250 250 250 250 250 249 249 250 250 250 250 250 250 250 251 251 252 252 253 254 254 254 252 250 248 248 247 247 247 247 247 248 250 251 252 253 254 255 255 255 256 256 257 257 257 258 259 261 261 261 260 261
250 250 252 249 246 244 244 246 246 241 238 241 248 255 257 258 257 255 252 252 252 253 254 254 253 252 252 251 251 250 250 250 250 250 251 251 251 251 251 250 250 250 250 250 251 251 251 251 252 252 252 253 253 253 254 254 254 253 252 250 249 249 249 249 249 249 249 250 251 253 254 255 256 257 258 259 260 260 261 262 262 263 263 263 263
252 254 256 251 247 246 244 244 244 243 243 245 249 254 257 258 260 259 257 256 256 256 256 256 256 255 254 253 252 252 252 251 251 251 251 251 251 251 251 251 251 251 251 251 251 251 251 251 251 252 252 253 254 254 253 253 254 254 254 254 253 252 251 251 251 252 252 251 251 252 253 254 255 256 258 259 260 261 262 262 263 263 264 265 265
255 256 256 251 248 247 247 247 245 243 245 249 253 257 259 260 262 262 261 260 260 260 259 258 258 257 256 254 253 253 253 253 252 252 251 251 251 252 252 252 252 252 252 252 252 252 252 252 252 252 252 253 253 254 254 254 254 254 254 255 255 255 254 253 253 253 254 253 253 253 253 254 255 255 256 258 259 260 261 261 262 263 264 264 265
254 255 255 253 250 249 250 249 246 244 245 249 252 255 258 259 260 260 260 261 262 263 262 261 260 258 257 256 255 254 254 253 254 254 253 253 252 252 252 252 252 252 252 253 253 253 253 253 253 253 253 253 253 254 254 254 254 254 254 254 254 255 255 255 255 255 255 255 254 254 254 255 256 256 256 257 258 258 259 260 261 261 262 263 264
255 255 255 254 253 252 252 251 249 246 246 248 252 254 256 258 259 259 259 261 262 263 262 261 261 260 260 258 257 256 255 255 255 255 255 254 254 253 253 253 253 253 253 253 253 253 253 253 253 254 254 254 254 254 255 255 254 254 254 254 254 254 254 255 255 255 256 256 256 255 255 256 257 257 257 257 257 258 258 259 259 260 261 261 262
259 258 257 257 256 255 254 254 253 251 250 250 251 254 256 258 259 259 259 261 262 263 262 261 260 260 261 260 260 259 258 257 256 256 256 256 255 255 255 254 254 253 253 253 253 253 253 253 254 254 254 254 254 254 254 255 255 255 255 255 255 255 255 255 255 255 256 257 257 256 256 257 258 258 258 258 258 259 259 260 260 260 260 260 261
262 261 260 259 259 258 257 256 256 255 254 253 253 254 256 258 259 259 259 259 260 261 261 261 260 260 260 261 261 261 260 259 259 258 258 258 257 256 256 255 255 254 254 254 254 254 254 254 254 254 254 255 255 255 255 255 255 255 255 255 255 255 255 256 256 256 256 257 257 257 256 256 258 258 259 259 259 260 260 260 260 261 261 261 261
263 262 262 261 261 260 260 259 259 258 257 255 255 255 256 257 259 259 259 258 259 259 259 260 260 260 260 260 261 261 261 260 260 260 260 259 259 258 257 257 256 255 255 255 255 255 255 255 255 255 255 255 255 256 256 256 256 256 256 256 255 255 255 255 256 256 257 258 258 258 257 257 257 258 259 259 260 260 260 260 260 260 260 261 261
261 261 261 261 261 261 261 261 260 259 258 257 257 257 258 258 259 259 259 258 258 258 258 259 259 259 260 260 260 260 260 260 260 260 260 260 259 259 259 258 258 257 256 255 255 255 255 256 256 256 256 256 256 256 256 256 256 257 257 257 257 257 256 256 256 256 257 257 258 258 258 258 258 258 259 259 260 260 260 261 261 261 261 261 261
261 260 260 260 260 260 260 260 259 259 258 258 258 259 259 259 259 259 259 258 258 259 259 259 259 259 259 259 260 260 260 260 260 260 260 260 260 260 259 259 259 258 258 258 257 256 256 256 256 256 256 256 257 257 257 257 257 257 257 257 257 257 258 257 257 257 257 258 258 258 258 258 258 258 258 258 259 260 260 260 261 261 261 262 261
Height
10708 10708 10711 10712 10708 10706 10707 10709 10711 10711 10712 10712 10712 10713 10714 10716 10716 10714 10712 10710 10708 10707 10708 10709 10709 10710 10711 10711 10712 10713 10714 10716 10718 10720 10721 10723 10726 10729 10731 10733 10734 10735 10736 10738 10740 10742 10744 10745 10746 10748 10750 10752 10753 10755 10757 10759 10761 10763 10765 10766 10767 10768 10770 10770 10771 10772 10773 10773 10774 10775 10775 10776 10777 10777 10778 10778 10779 10779 10779 10780 10780 10781 10781 10781 10781
10702 10703 10705 10706 10704 10702 10703 10705 10705 10706 10707 10708 10708 10707 10708 10710 10712 10710 10707 10705 10703 10702 10702 10704 10705 10706 10707 10707 10708 10709 10710 10712 10714 10716 10717 10719 10722 10725 10728 10730 10731 10732 10733 10735 10737 10739 10740 10742 10743 10745 10747 10748 10750 10752 10753 10755 10757 10759 10761 10762 10763 10765 10766 10767 10768 10769 10770 10770 10771 10772 10773 10773 10774 10775 10775 10776 10776 10777 10777 10777 10778 10778 10779 10779 10779
10697 10697 10699 10700 10700 10700 10699 10700 10700 10701 10704 10704 10703 10701 10702 10704 10705 10704 10701 10700 10699 10699 10698 10699 10700 10702 10703 10704 10704 10705 10706 10707 10709 10712 10714 10715 10717 10720 10723 10727 10729 10730 10730 10731 10733 10735 10737 10739 10740 10741 10743 10745 10747 10749 10750 10752 10753 10755 10757 10758 10760 10761 10763 10764 10765 10766 10767 10767 10768 10769 10770 10771 10771 10772 10773 10773 10774 10774 10775 10775 10775 10776 10776 10776 10777
10690 10691 10693 10694 10696 10697 10696 10696 10696 10697 10699 10699 10696 10695 10696 10696 10697 10697 10696 10698 10696 10695 10696 10695 10697 10698 10699 10700 10701 10702 10703 10704 10706 10708 10710 10712 10713 10716 10719 10723 10726 10727 10727 10728 10729 10731 10733 10735 10737 10738 10740 10742 10744 10745 10747 10748 10750 10752 10753 10755 10756 10757 10759 10760 10762 10763 10764 10765 10766 10766 10767 10768 10768 10769 10769 10770 10771 10772 10772 10772 10773 10773 10774 10774 10774
10684 10685 10686 10687 10689 10691 10692 10691 10691 10691 10692 10690 10687 10688 10687 10685 10689 10692 10691 10693 10693 10692 10693 10692 10693 10695 10696 10697 10698 10698 10699 10700 10703 10705 10707 10709 10710 10712 10715 10719 10722 10723 10724 10725 10725 10727 10729 10731 10733 10735 10737 10739 10741 10742 10743 10744 10746 10747 10749 10751 10752 10754 10756 10757 10759 10760 10761 10762 10763 10763 10764 10764 10765 10766 10766 10767 10768 10769 10769 10770 10770 10771 10771 10771 10772
10678 10681 10680 10681 10684 10687 10688 10685 10684 10684 10684 10682 10681 10682 10680 10679 10683 10685 10685 10687 10689 10689 10689 10689 10690 10692 10692 10693 10694 10695 10696 10697 10700 10702 10704 10705 10707 10709 10712 10716 10719 10720 10721 10722 10722 10723 10725 10728 10730 10732 10734 10735 10737 10738 10739 10740 10742 10743 10745 10747 10748 10750 10751 10753 10755 10756 10758 10758 10759 10760 10760 10761 10762 10763 10763 10764 10765 10766 10766 10767 10767 10768 10768 10769 10769
10672 10676 10675 10676 10680 10685 10686 10681 10677 10677 10678 10677 10677 10678 10678 10677 10679 10679 10680 10683 10685 10685 10685 10685 10687 10688 10689 10690 10691 10692 10693 10695 10697 10699 10700 10701 10703 10705 10709 10713 10716 10717 10718 10718 10719 10720 10722 10724 10726 10728 10730 10731 10733 10734 10735 10737 10738 10740 10741 10743 10745 10746 10747 10749 10751 10752 10753 10755 10756 10756 10757 10757 10758 10760 10761 10761 10762 10763 10764 10764 10765 10765 10766 10766 10766
10668 10672 10673 10672 10675 10680 10681 10677 10672 10671 10672 10672 10673 10674 10674 10673 10674 10675 10676 10679 10681 10682 10683 10683 10684 10685 10686 10687 10687 10688 10690 10692 10694 10696 10698 10699 10699 10701 10704 10708 10711 10713 10715 10715 10716 10717 10718 10720 10722 10724 10726 10727 10728 10730 10731 10733 10735 10736 10738 10739 10741 10743 10744 10745 10746 10748 10749 10750 10751 10752 10753 10754 10755 10757 10758 10759 10759 10760 10761 10761 10762 10762 10763 10763 10763
10661 10666 10669 10668 10669 10673 10674 10671 10670 10668 10665 10664 10667 10669 10671 10671 10670 10670 10672 10676 10679 10680 10680 10680 10680 10681 10682 10683 10684 10685 10686 10688 10690 10692 10694 10695 10696 10697 10700 10704 10708 10710 10712 10713 10714 10715 10716 10717 10719 10720 10722 10723 10724 10726 10727 10729 10731 10732 10734 10735 10737 10739 10740 10741 10742 10743 10745 10746 10748 10749 10750 10751 10752 10754 10755 10756 10756 10757 10758 10759 10759 10760 10760 10760 10760
10651 10655 10659 10659 10660 10664 10664 10664 10665 10663 10659 10658 10661 10664 10669 10669 10667 10666 10669 10673 10676 10676 10676 10676 10677 10678 10678 10679 10680 10682 10683 10685 10687 10689 10690 10692 10694 10695 10697 10700 10704 10707 10709 10710 10711 10712 10713 10714 10716 10717 10718 10719 10720 10721 10723 10726 10728 10729 10730 10731 10733 10734 10736 10737 10738 10740 10741 10743 10744 10745 10747 10748 10749 10750 10751 10752 10753 10754 10754 10755 10756 10756 10757 10757 10758
10642 10643 10646 10648 10651 10654 10655 10654 10655 10654 10653 10654 10656 10659 10663 10665 10664 10664 10665 10669 10672 10672 10672 10672 10672 10674 10673 10674 10676 10678 10680 10681 10683 10685 10687 10689 10691 10692 10693 10695 10698 10701 10704 10706 10708 10709 10710 10711 10712 10713 10715 10715 10716 10717 10719 10721 10724 10726 10727 10728 10729 10731 10732 10734 10735 10736 10738 10739 10741 10742 10743 10744 10745 10747 10748 10748 10749 10750 10751 10752 10752 10753 10754 10754 10755
10635 10635 10637 10640 10643 10646 10646 10647 10648 10648 10649 10649 10651 10653 10657 10660 10660 10661 10662 10665 10668 10669 10669 10669 10669 10669 10669 10669 10672 10674 10675 10676 10679 10681 10683 10685 10687 10689 10691 10692 10694 10696 10698 10701 10704 10706 10707 10708 10709 10710 10710 10711 10712 10713 10715 10717 10720 10722 10723 10725 10726 10727 10728 10730 10731 10732 10734 10735 10737 10738 10739 10741 10742 10743 10744 10745 10746 10747 10748 10748 10749 10750 10750 10751 10752
10629 10629 10631 10633 10635 10638 10639 10641 10642 10642 10643 10644 10646 10648 10652 10655 10656 10657 10658 10661 10664 10665 10665 10665 10666 10667 10666 10667 10668 10669 10671 10672 10674 10676 10678 10681 10683 10685 10687 10689 10691 10692 10694 10696 10699 10701 10703 10704 10706 10706 10707 10707 10708 10710 10711 10713 10716 10718 10719 10721 10722 10723 10724 10726 10727 10728 10729 10730 10732 10733 10735 10737 10738 10739 10740 10741 10742 10743 10744 10745 10745 10746 10747 10748 10749
10623 10624 10625 10626 10629 10631 10633 10635 10636 10637 10638 10640 10642 10644 10646 10649 10650 10652 10655 10657 10660 10661 10661 10661 10662 10664 10665 10665 10665 10666 10667 10667 10668 10671 10674 10676 10678 10680 10683 10685 10687 10689 10691 10693 10695 10697 10699 10700 10702 10703 10703 10704 10705 10706 10708 10709 10712 10714 10715 10717 10718 10720 10721 10722 10723 10724 10725 10726 10727 10729 10730 10732 10734 10735 10736 10737 10738 10739 10740 10741 10741 10742 10743 10744 10745
10618 10619 10620 10621 10624 10626 10628 10630 10630 10631 10633 10635 10637 10639 10641 10643 10646 10648 10650 10653 10655 10656 10656 10657 10659 10660 10662 10662 10663 10664 10663 10663 10665 10667 10669 10671 10673 10675 10678 10681 10683 10686 10687 10689 10691 10693 10695 10696 10698 10700 10700 10701 10702 10703 10705 10706 10708 10710 10712 10714 10715 10717 10718 10718 10719 10720 10721 10722 10723 10725 10726 10728 10729 10731 10732 10732 10733 10735 10736 10736 10738 10739 10740 10741 10742
10613 10614 10616 10617 10619 10621 10623 10625 10625 10626 10628 10630 10631 10634 10636 10638 10641 10643 10645 10648 10649 10650 10652 10654 10655 10657 10658 10658 10660 10661 10660 10661 10663 10664 10666 10667 10668 10671 10674 10677 10680 10682 10684 10686 10687 10689 10690 10692 10694 10696 10697 10698 10699 10700 10702 10704 10706 10708 10709 10711 10712 10714 10714 10715 10715 10716 10718 10719 10719 10721 10722 10724 10725 10727 10728 10728 10729 10730 10731 10732 10733 10735 10736 10737 10738
10608 10610 10611 10613 10614 10616 10618 10620 10621 10622 10623 10625 10626 10629 10631 10633 10635 10638 10641 10642 10644 10646 10648 10650 10652 10652 10653 10654 10655 10656 10657 10657 10659 10661 10662 10663 10665 10667 10670 10673 10675 10678 10680 10682 10683 10685 10686 10688 10690 10692 10693 10695 10696 10697 10699 10701 10703 10705 10706 10707 10709 10710 10711 10712 10712 10713 10714 10715 10716 10717 10719 10720 10721 10722 10723 10724 10725 10726 10727 10728 10729 10731 10732 10733 10734
10604 10605 10607 10608 10610 10612 10613 10615 10617 10618 10619 10620 10622 10624 10626 10628 10630 10633 10635 10637 10640 10642 10643 10645 10647 10648 10649 10650 10651 10652 10652 10653 10655 10657 10658 10659 10661 10663 10666 10669 10671 10673 10676 10677 10678 10680 10682 10684 10687 10689 10690 10692 10693 10695 10696 10698 10700 10701 10702 10703 10704 10706 10707 10708 10709 10710 10710 10711 10712 10713 10715 10716 10717 10718 10719 10720 10721 10722 10723 10724 10725 10726 10727 10728 10730
10601 10602 10603 10604 10606 10608 10609 10611 10613 10614 10615 10616 10617 10619 10621 10623 10625 10628 10630 10633 10635 10637 10639 10640 10642 10644 10645 10646 10646 10647 10648 10650 10651 10653 10654 10655 10657 10659 10662 10664 10666 10668 10671 10672 10673 10676 10678 10680 10683 10685 10686 10688 10689 10691 10693 10695 10696 10697 10698 10699 10700 10702 10703 10704 10705 10706 10707 10708 10709 10709 10711 10712 10713 10714 10715 10716 10717 10718 10719 10719 10720 10721 10722 10724 10725
10598 10599 10600 10601 10602 10604 10606 10607 10609 10610 10611 10612 10613 10615 10616 10618 10620 10622 10625 10627 10630 10632 10634 10636 10638 10639 10640 10642 10643 10643 10645 10646 10647 10648 10650 10652 10653 10655 10657 10659 10662 10664 10666 10667 10668 10670 10673 10675 10678 10680 10682 10683 10685 10686 10688 10689 10691 10691 10693 10694 10696 10698 10700 10701 10702 10703 10704 10705 10706 10706 10707 10708 10709 10711 10711 10712 10713 10714 10715 10715 10716 10717 10718 10719 10721
10595 10596 10597 10598 10599 10601 10602 10604 10605 10606 10607 10608 10610 10611 10612 10614 10615 10617 10619 10622 10625 10626 10628 10631 10633 10635 10636 10638 10639 10640 10642 10642 10642 10644 10646 10648 10649 10651 10653 10655 10657 10659 10661 10662 10664 10666 10667 10669 10672 10675 10677 10678 10680 10681 10682 10684 10685 10685 10688 10690 10692 10694 10695 10697 10697 10698 10700 10701 10702 10703 10703 10704 10705 10706 10707 10708 10709 10710 10711 10711 10712 10713 10714 10715 10716
10592 10593 10594 10595 10596 10597 10599 10600 10602 10603 10604 10605 10606 10607 10608 10610 10611 10613 10614 10616 10619 10621 10623 10625 10627 10629 10631 10633 10634 10635 10638 10638 10638 10640 10642 10644 10645 10646 10648 10651 10653 10654 10656 10658 10660 10661 10663 10665 10667 10669 10671 10673 10675 10677 10678 10680 10681 10682 10684 10686 10687 10688 10691 10692 10693 10693 10695 10696 10697 10699 10700 10701 10701 10702 10703 10703 10704 10705 10706 10707 10708 10709 10710 10711 10712
10589 10590 10591 10592 10593 10594 10596 10597 10598 10599 10600 10602 10602 10604 10605 10606 10607 10609 10610 10611 10613 10615 10617 10619 10621 10623 10626 10628 10629 10631 10633 10634 10634 10636 10638 10639 10640 10642 10643 10646 10648 10650 10652 10654 10656 10657 10660 10661 10662 10664 10666 10668 10670 10672 10674 10676 10677 10678 10680 10681 10681 10683 10685 10687 10687 10688 10690 10691 10693 10694 10696 10697 10697 10697 10698 10700 10700 10701 10702 10702 10703 10704 10705 10706 10707
10586 10586 10587 10588 10589 10590 10592 10593 10595 10596 10597 10598 10599 10600 10601 10602 10603 10604 10606 10607 10608 10609 10611 10613 10615 10617 10620 10622 10624 10626 10628 10630 10631 10632 10633 10635 10636 10638 10639 10641 10644 10646 10648 10650 10651 10653 10655 10657 10658 10660 10662 10664 10666 10668 10670 10672 10673 10674 10675 10676 10677 10678 10680 10681 10682 10683 10685 10686 10688 10689 10691 10692 10693 10693 10695 10696 10696 10697 10697 10698 10699 10699 10701 10701 10702
10584 10584 10584 10585 10585 10586 10587 10589 10590 10591 10593 10594 10595 10596 10597 10598 10599 10600 10601 10602 10604 10605 10606 10607 10609 10612 10614 10616 10618 10620 10622 10624 10626 10628 10629 10631 10632 10634 10635 10637 10640 10642 10644 10646 10647 10649 10650 10652 10654 10656 10658 10659 10661 10663 10666 10668 10669 10669 10670 10671 10672 10673 10675 10676 10677 10679 10680 10681 10682 10683 10685 10686 10688 10690 10691 10692 10693 10693 10693 10694 10694 10695 10696 10697 10698
10580 10581 10581 10581 10582 10583 10583 10584 10585 10586 10588 10589 10590 10591 10592 10593 10594 10595 10597 10598 10599 10600 10601 10602 10604 10606 10608 10610 10612 10614 10617 10619 10621 10623 10625 10627 10628 10629 10631 10633 10636 10638 10639 10641 10643 10644 10646 10647 10649 10651 10653 10654 10656 10659 10661 10662 10663 10663 10664 10666 10668 10669 10670 10673 10674 10675 10676 10676 10677 10679 10680 10682 10684 10686 10687 10688 10689 10689 10690 10690 10691 10691 10693 10694 10694
10576 10576 10577 10577 10578 10578 10579 10580 10581 10582 10583 10584 10585 10586 10587 10588 10589 10591 10592 10593 10594 10595 10596 10597 10598 10600 10602 10604 10607 10609 10611 10613 10615 10618 10620 10622 10624 10625 10626 10628 10631 10633 10635 10636 10638 10640 10641 10642 10643 10646 10648 10649 10651 10653 10654 10655 10656 10658 10659 10662 10664 10665 10666 10668 10669 10670 10671 10672 10673 10675 10676 10677 10679 10680 10682 10684 10685 10686 10686 10686 10687 10688 10689 10690 10690
10571 10571 10572 10572 10573 10574 10574 10575 10576 10578 10579 10579 10580 10581 10582 10583 10585 10586 10587 10588 10589 10590 10591 10592 10593 10595 10596 10598 10601 10603 10605 10607 10609 10611 10614 10616 10619 10621 10622 10623 10625 10627 10629 10631 10633 10635 10635 10636 10639 10642 10643 10644 10645 10646 10648 10649 10651 10653 10655 10656 10658 10659 10661 10663 10664 10665 10666 10667 10669 10670 10671 10672 10673 10675 10677 10678 10680 10681 10681 10682 10683 10683 10684 10685 10686
10564 10565 10566 10567 10567 10568 10569 10570 10571 10573 10574 10575 10576 10577 10578 10579 10580 10581 10582 10584 10585 10586 10587 10588 10589 10590 10591 10593 10595 10597 10599 10601 10604 10605 10607 10609 10612 10615 10617 10618 10620 10621 10623 10625 10628 10629 10629 10632 10635 10636 10636 10638 10640 10641 10643 10645 10646 10647 10649 10650 10652 10654 10655 10657 10658 10660 10661 10662 10664 10664 10665 10666 10668 10670 10671 10672 10674 10676 10677 10677 10678 10678 10679 10680 10681
10558 10559 10560 10561 10561 10562 10564 10565 10566 10568 10569 10571 10572 10573 10574 10575 10576 10577 10578 10579 10580 10581 10582 10583 10584 10585 10587 10588 10590 10591 10593 10595 10597 10599 10601 10603 10604 10607 10610 10613 10614 10615 10617 10619 10621 10622 10623 10626 10629 10630 10630 10633 10634 10635 10637 10639 10640 10642 10644 10645 10647 10649 10649 10650 10652 10653 10655 10657 10658 10659 10659 10660 10663 10664 10666 10667 10668 10670 10671 10672 10672 10673 10674 10674 10675
10551 10552 10553 10554 10555 10557 10558 10559 10561 10562 10564 10565 10567 10568 10569 10570 10571 10572 10573 10574 10575 10576 10577 10578 10579 10581 10582 10583 10585 10586 10587 10589 10591 10593 10595 10596 10597 10599 10602 10605 10608 10609 10611 10612 10614 10615 10617 10619 10622 10623 10624 10626 10628 10629 10631 10633 10634 10635 10638 10639 10641 10643 10643 10643 10645 10647 10649 10651 10651 10652 10653 10655 10657 10658 10660 10661 10663 10664 10665 10666 10667 10667 10668 10669 10670
10545 10546 10547 10548 10550 10551 10552 10553 10555 10557 10558 10559 10561 10562 10563 10564 10565 10566 10567 10568 10569 10570 10571 10573 10574 10575 10577 10578 10579 10581 10582 10583 10584 10586 10587 10589 10590 10592 10593 10596 10599 10601 10604 10605 10607 10608 10609 10611 10613 10615 10617 10619 10621 10622 10624 10626 10627 10628 10630 10632 10634 10636 10636 10637 10638 10640 10642 10644 10645 10646 10647 10649 10651 10653 10654 10656 10657 10658 10658 10659 10660 10661 10662 10663 10664
10538 10540 10541 10542 10544 10545 10546 10547 10549 10550 10552 10553 10554 10555 10556 10557 10558 10559 10560 10561 10562 10564 10565 10567 10568 10569 10571 10572 10573 10574 10575 10576 10577 10579 10580 10581 10583 10584 10586 10587 10589 10592 10595 10597 10599 10601 10602 10604 10605 10607 10609 10610 10612 10614 10616 10618 10619 10621 10623 10625 10627 10628 10629 10630 10631 10633 10635 10637 10638 10639 10640 10643 10644 10646 10648 10649 10650 10650 10652 10653 10654 10655 10655 10656 10658
10532 10533 10535 10536 10537 10539 10540 10541 10543 10544 10545 10546 10547 10548 10549 10549 10551 10552 10553 10555 10556 10558 10559 10560 10561 10562 10563 10565 10566 10567 10568 10569 10570 10571 10573 10574 10575 10577 10578 10580 10581 10583 10585 10587 10590 10592 10595 10597 10598 10600 10601 10602 10604 10606 10608 10610 10611 10613 10615 10617 10619 10620 10621 10622 10623 10625 10627 10628 10629 10631 10633 10635 10637 10639 10640 10641 10641 10643 10644 10646 10647 10647 10648 10649 10650
10525 10526 10529 10530 10531 10533 10533 10534 10536 10537 10538 10539 10539 10540 10541 10542 10543 10545 10546 10548 10549 10551 10552 10553 10554 10555 10555 10556 10558 10559 10560 10561 10562 10563 10565 10566 10568 10569 10571 10572 10574 10575 10577 10578 10580 10583 10585 10588 10591 10592 10594 10596 10597 10598 10600 10602 10603 10605 10607 10609 10611 10612 10613 10614 10615 10617 10618 10619 10621 10623 10625 10627 10629 10631 10632 10633 10634 10635 10636 10638 10639 10640 10641 10641 10642
10518 10520 10522 10523 10525 10527 10527 10528 10529 10530 10531 10532 10532 10532 10533 10534 10536 10538 10539 10541 10541 10542 10543 10545 10546 10547 10548 10549 10550 10551 10553 10553 10554 10555 10557 10558 10560 10561 10563 10564 10566 10567 10569 10570 10572 10574 10576 10579 10582 10584 10585 10587 10589 10590 10592 10594 10596 10598 10599 10601 10603 10604 10605 10606 10607 10608 10609 10610 10612 10614 10616 10618 10620 10622 10624 10625 10626 10627 10628 10630 10631 10632 10633 10634 10635
10511 10513 10515 10517 10519 10519 10519 10520 10522 10523 10524 10524 10524 10524 10525 10526 10527 10529 10531 10532 10533 10534 10535 10537 10538 10539 10541 10542 10543 10544 10544 10545 10546 10547 10549 10550 10552 10553 10555 10556 10557 10559 10560 10562 10564 10565 10567 10569 10572 10575 10577 10578 10580 10581 10583 10585 10587 10589 10591 10593 10595 10596 10597 10598 10599 10600 10601 10602 10603 10605 10607 10609 10611 10613 10615 10617 10618 10619 10620 10622 10623 10624 10625 10626 10627
10502 10505 10509 10514 10514 10511 10509 10509 10510 10513 10515 10515 10515 10514 10514 10515 10517 10519 10521 10522 10524 10526 10527 10528 10529 10531 10532 10533 10534 10535 10536 10537 10538 10540 10541 10542 10544 10545 10547 10548 10549 10551 10552 10554 10556 10557 10558 10559 10562 10565 10568 10570 10572 10573 10575 10577 10579 10580 10583 10585 10587 10588 10589 10590 10591 10592 10593 10594 10595 10597 10599 10600 10602 10604 10606 10608 10609 10610 10611 10613 10614 10615 10616 10617 10618
10494 10497 10501 10505 10503 10498 10497 10498 10500 10504 10507 10506 10504 10502 10500 10503 10506 10508 10511 10513 10515 10517 10518 10520 10521 10522 10523 10524 10525 10526 10527 10528 10530 10532 10533 10535 10536 10538 10539 10540 10542 10543 10544 10546 10548 10549 10550 10551 10552 10554 10557 10560 10562 10564 10566 10570 10572 10573 10575 10578 10579 10579 10581 10582 10583 10584 10585 10586 10587 10589 10591 10593 10594 10595 10597 10600 10601 10602 10604 10605 10606 10607 10608 10609 10610
10488 10490 10492 10493 10491 10488 10489 10491 10494 10498 10499 10496 10491 10487 10487 10491 10494 10498 10501 10504 10505 10507 10509 10510 10511 10513 10514 10515 10516 10518 10518 10519 10522 10524 10525 10526 10528 10529 10531 10532 10533 10534 10536 10537 10539 10541 10542 10543 10544 10545 10547 10549 10550 10552 10556 10560 10564 10565 10566 10569 10571 10571 10572 10573 10574 10574 10576 10578 10579 10580 10582 10584 10586 10587 10589 10591 10593 10594 10596 10598 10599 10600 10601 10602 10603
10482 10484 10485 10486 10485 10484 10484 10486 10488 10490 10488 10484 10479 10476 10477 10480 10484 10488 10491 10493 10495 10497 10499 10500 10502 10503 10504 10505 10507 10509 10509 10510 10512 10515 10516 10517 10519 10520 10522 10524 10525 10525 10527 10528 10529 10531 10533 10535 10535 10536 10538 10539 10540 10542 10545 10549 10553 10555 10557 10560 10562 10561 10562 10564 10565 10565 10567 10569 10570 10572 10573 10575 10577 10577 10579 10581 10582 10584 10586 10589 10590 10591 10592 10593 10594
10474 10476 10478 10479 10479 10479 10479 10480 10482 10481 10478 10474 10471 10470 10470 10471 10474 10479 10482 10483 10485 10488 10490 10491 10493 10494 10495 10495 10497 10499 10499 10500 10503 10505 10506 10508 10509 10511 10512 10514 10516 10517 10518 10519 10520 10522 10524 10525 10526 10527 10529 10530 10530 10532 10535 10537 10540 10544 10546 10549 10552 10552 10552 10555 10555 10554 10556 10559 10562 10564 10564 10564 10566 10568 10568 10569 10570 10572 10575 10578 10578 10579 10580 10581 10583
10465 10467 10470 10472 10473 10473 10473 10474 10475 10475 10471 10467 10465 10464 10464 10465 10466 10469 10473 10476 10476 10478 10481 10483 10483 10485 10485 10486 10488 10489 10490 10491 10493 10495 10496 10498 10499 10501 10502 10504 10506 10507 10508 10510 10511 10512 10514 10516 10517 10518 10520 10520 10520 10522 10525 10527 10529 10533 10535 10536 10539 10542 10543 10546 10546 10544 10544 10548 10553 10556 10555 10554 10556 10559 10559 10558 10559 10561 10563 10565 10566 10567 10569 10571 10572
10455 10457 10460 10463 10464 10465 10466 10467 10468 10468 10466 10462 10461 10460 10459 10458 10457 10459 10464 10467 10468 10469 10471 10472 10473 10474 10475 10477 10479 10480 10480 10480 10482 10484 10486 10488 10489 10490 10492 10494 10495 10497 10499 10500 10501 10502 10503 10505 10507 10508 10509 10510 10511 10511 10512 10515 10519 10522 10523 10524 10526 10529 10532 10534 10536 10535 10533 10535 10542 10547 10546 10544 10545 10549 10550 10549 10549 10551 10552 10553 10554 10556 10558 10560 10562
10446 10447 10449 10451 10453 10454 10456 10458 10460 10460 10459 10457 10456 10455 10452 10449 10448 10450 10454 10459 10460 10460 10460 10460 10461 10463 10465 10466 10467 10468 10469 10470 10471 10473 10475 10477 10477 10479 10482 10483 10484 10486 10488 10490 10490 10491 10492 10493 10496 10497 10497 10499 10501 10500 10499 10503 10507 10509 10511 10513 10514 10517 10520 10521 10523 10524 10522 10523 10529 10536 10537 10534 10532 10537 10541 10540 10539 10540 10541 10542 10543 10545 10547 10549 10550
10436 10437 10438 10440 10442 10444 10445 10446 10448 10451 10453 10452 10449 10446 10442 10438 10438 10440 10445 10451 10453 10451 10449 10450 10451 10452 10454 10454 10455 10456 10458 10459 10461 10462 10464 10465 10466 10468 10471 10472 10474 10475 10476 10477 10478 10478 10479 10481 10484 10485 10485 10486 10489 10489 10488 10490 10493 10496 10498 10501 10503 10505 10508 10509 10510 10511 10511 10511 10515 10522 10527 10524 10519 10524 10529 10528 10527 10529 10531 10532 10533 10535 10537 10538 10538
10424 10426 10427 10429 10431 10433 10434 10435 10437 10441 10446 10445 10440 10435 10431 10427 10427 10431 10437 10442 10442 10440 10439 10440 10441 10442 10442 10443 10443 10445 10447 10448 10450 10451 10452 10453 10455 10456 10458 10461 10462 10464 10464 10465 10465 10466 10468 10470 10473 10474 10474 10474 10476 10477 10476 10477 10479 10482 10485 10488 10491 10492 10495 10497 10498 10500 10500 10500 10500 10507 10515 10513 10507 10510 10515 10514 10514 10518 10519 10520 10522 10523 10525 10528 10528
10410 10413 10414 10416 10419 10421 10423 10424 10428 10432 10434 10432 10428 10424 10420 10417 10418 10422 10428 10431 10430 10429 10428 10429 10430 10431 10431 10431 10433 10434 10435 10437 10439 10440 10441 10441 10442 10443 10445 10448 10450 10452 10453 10452 10453 10454 10457 10459 10460 10461 10462 10463 10463 10463 10464 10465 10467 10468 10471 10476 10478 10478 10481 10485 10487 10488 10488 10488 10488 10492 10501 10502 10495 10496 10500 10500 10501 10505 10507 10508 10509 10509 10512 10515 10517
10399 10400 10401 10404 10405 10408 10411 10414 10418 10420 10418 10415 10414 10412 10411 10410 10410 10412 10416 10417 10417 10417 10417 10418 10419 10419 10419 10420 10421 10421 10422 10425 10428 10429 10428 10428 10428 10430 10433 10435 10437 10439 10440 10439 10440 10442 10444 10446 10447 10449 10450 10451 10451 10451 10451 10453 10454 10455 10458 10463 10464 10464 10469 10473 10475 10475 10475 10476 10476 10477 10484 10488 10484 10483 10487 10487 10488 10491 10493 10493 10494 10496 10499 10502 10505
10388 10388 10389 10391 10393 10397 10401 10403 10403 10403 10401 10401 10401 10401 10402 10402 10400 10399 10402 10403 10404 10404 10405 10406 10408 10408 10408 10408 10409 10409 10410 10414 10416 10416 10415 10415 10416 10418 10420 10422 10424 10425 10425 10426 10428 10430 10431 10432 10434 10435 10436 10437 10437 10438 10439 10440 10441 10442 10445 10448 10449 10450 10455 10460 10462 10463 10464 10464 10462 10461 10467 10473 10471 10471 10474 10475 10475 10477 10478 10479 10480 10481 10484 10489 10492
10376 10376 10377 10380 10383 10387 10390 10389 10387 10388 10388 10389 10391 10391 10390 10389 10387 10387 10388 10390 10391 10392 10393 10395 10396 10396 10396 10396 10397 10398 10399 10401 10402 10402 10402 10402 10403 10405 10407 10409 10410 10411 10411 10413 10415 10417 10418 10419 10420 10421 10422 10423 10424 10425 10425 10426 10427 10428 10431 10434 10435 10437 10441 10444 10447 10449 10452 10452 10448 10446 10452 10457 10457 10458 10460 10462 10464 10465 10464 10464 10466 10467 10470 10474 10478